Time,TemperatureF,DewpointF,PressureIn,WindDirection,WindDirectionDegrees,WindSpeedMPH,WindSpeedGustMPH,Humidity,HourlyPrecipIn,Conditions,Clouds,dailyrainin,SoftwareType,DateUTC
2013-01-04 00:21:00,29.3,22.0,30.30,WSW,239,0.0,4.0,73,0.00,,,0.00,weatherlink.com 1.10,2013-01-04 05:21:00,
2013-01-04 00:36:00,29.0,22.0,30.30,SW,233,1.0,6.0,74,0.00,,,0.00,weatherlink.com 1.10,2013-01-04 05:36:00,
2013-01-04 00:51:00,28.9,22.0,30.30,NNW,342,3.0,5.0,75,0.00,,,0.00,weatherlink.com 1.10,2013-01-04 05:51:00,
2013-01-04 01:06:00,28.8,22.0,30.30,West,274,1.0,2.0,77,0.00,,,0.00,weatherlink.com 1.10,2013-01-04 06:06:00,
2013-01-04 01:21:00,28.6,22.0,30.30,WSW,248,1.0,2.0,76,0.00,,,0.00,weatherlink.com 1.10,2013-01-04 06:21:00,
2013-01-04 01:36:00,28.6,22.0,30.29,ENE,78,1.0,4.0,76,0.00,,,0.00,weatherlink.com 1.10,2013-01-04 06:36:00,
2013-01-04 01:51:00,28.6,22.0,30.30,NW,312,4.0,6.0,76,0.00,,,0.00,weatherlink.com 1.10,2013-01-04 06:51:00,
2013-01-04 02:06:00,28.7,22.0,30.30,NW,316,0.0,3.0,76,0.00,,,0.00,weatherlink.com 1.10,2013-01-04 07:06:00,
2013-01-04 02:21:00,28.7,22.0,30.31,NW,324,2.0,4.0,76,0.00,,,0.00,weatherlink.com 1.10,2013-01-04 07:21:00,
2013-01-04 02:36:00,28.6,22.0,30.31,NNW,335,2.0,3.0,77,0.00,,,0.00,weatherlink.com 1.10,2013-01-04 07:36:00,
2013-01-04 02:51:00,28.6,22.0,30.31,WSW,241,0.0,4.0,77,0.00,,,0.00,weatherlink.com 1.10,2013-01-04 07:51:00,
2013-01-04 03:06:00,28.6,22.0,30.31,NNE,15,0.0,6.0,77,0.00,,,0.00,weatherlink.com 1.10,2013-01-04 08:06:00,
2013-01-04 03:21:00,27.1,21.0,30.32,NNW,338,0.0,2.0,77,0.00,,,0.00,weatherlink.com 1.10,2013-01-04 08:21:00,
2013-01-04 03:36:00,-999.0,-99.9,30.31,North,-999,-999.0,-999.0,-999,0.00,,,0.00,weatherlink.com 1.10,2013-01-04 08:36:00,
2013-01-04 03:51:00,-999.0,-99.9,30.31,North,-999,-999.0,-999.0,-999,0.00,,,0.00,weatherlink.com 1.10,2013-01-04 08:51:00,
2013-01-04 04:06:00,-999.0,-99.9,30.30,North,-999,-999.0,-999.0,-999,0.00,,,0.00,weatherlink.com 1.10,2013-01-04 09:06:00,
2013-01-04 04:21:00,-999.0,-99.9,30.30,North,-999,-999.0,-999.0,-999,0.00,,,0.00,weatherlink.com 1.10,2013-01-04 09:21:00,
2013-01-04 04:36:00,-999.0,-99.9,30.30,North,-999,-999.0,-999.0,-999,0.00,,,0.00,weatherlink.com 1.10,2013-01-04 09:36:00,
2013-01-04 04:51:00,-999.0,-99.9,30.30,North,-999,-999.0,-999.0,-999,0.00,,,0.00,weatherlink.com 1.10,2013-01-04 09:51:00,
2013-01-04 05:06:00,-999.0,-99.9,30.30,North,-999,-999.0,-999.0,-999,0.00,,,0.00,weatherlink.com 1.10,2013-01-04 10:06:00,
2013-01-04 05:21:00,-999.0,-99.9,30.30,North,-999,-999.0,-999.0,-999,0.00,,,0.00,weatherlink.com 1.10,2013-01-04 10:21:00,
2013-01-04 05:36:00,-999.0,-99.9,30.30,North,-999,-999.0,-999.0,-999,0.00,,,0.00,weatherlink.com 1.10,2013-01-04 10:36:00,
2013-01-04 05:51:00,-999.0,-99.9,30.30,North,-999,-999.0,-999.0,-999,0.00,,,0.00,weatherlink.com 1.10,2013-01-04 10:51:00,
2013-01-04 06:06:00,-999.0,-99.9,30.30,North,-999,-999.0,-999.0,-999,0.00,,,0.00,weatherlink.com 1.10,2013-01-04 11:06:00,
2013-01-04 06:21:00,-999.0,-99.9,30.30,North,-999,-999.0,-999.0,-999,0.00,,,0.00,weatherlink.com 1.10,2013-01-04 11:21:00,
2013-01-04 06:37:00,-999.0,-99.9,30.30,North,-999,-999.0,-999.0,-999,0.00,,,0.00,weatherlink.com 1.10,2013-01-04 11:37:00,
2013-01-04 06:52:00,-999.0,-99.9,30.30,North,-999,-999.0,-999.0,-999,0.00,,,0.00,weatherlink.com 1.10,2013-01-04 11:52:00,
2013-01-04 07:07:00,-999.0,-99.9,30.31,North,-999,-999.0,-999.0,-999,0.00,,,0.00,weatherlink.com 1.10,2013-01-04 12:07:00,
2013-01-04 07:22:00,-999.0,-99.9,30.31,North,-999,-999.0,-999.0,-999,0.00,,,0.00,weatherlink.com 1.10,2013-01-04 12:22:00,
2013-01-04 07:37:00,-999.0,-99.9,30.30,North,-999,-999.0,-999.0,-999,0.00,,,0.00,weatherlink.com 1.10,2013-01-04 12:37:00,
2013-01-04 07:52:00,-999.0,-99.9,30.30,North,-999,-999.0,-999.0,-999,0.00,,,0.00,weatherlink.com 1.10,2013-01-04 12:52:00,
2013-01-04 08:07:00,-999.0,-99.9,30.31,North,-999,-999.0,-999.0,-999,0.00,,,0.00,weatherlink.com 1.10,2013-01-04 13:07:00,
2013-01-04 08:22:00,-999.0,-99.9,30.31,North,-999,-999.0,-999.0,-999,0.00,,,0.00,weatherlink.com 1.10,2013-01-04 13:22:00,
2013-01-04 08:37:00,-999.0,-99.9,30.32,North,-999,-999.0,-999.0,-999,0.00,,,0.00,weatherlink.com 1.10,2013-01-04 13:37:00,
2013-01-04 08:52:00,-999.0,-99.9,30.31,North,-999,-999.0,-999.0,-999,0.00,,,0.00,weatherlink.com 1.10,2013-01-04 13:52:00,
2013-01-04 09:07:00,-999.0,-99.9,30.32,North,-999,-999.0,-999.0,-999,0.00,,,0.00,weatherlink.com 1.10,2013-01-04 14:07:00,
2013-01-04 09:22:00,29.0,23.0,30.32,West,274,1.0,7.0,78,0.00,,,0.00,weatherlink.com 1.10,2013-01-04 14:22:00,
2013-01-04 09:37:00,29.3,23.0,30.33,WNW,299,1.0,5.0,78,0.00,,,0.00,weatherlink.com 1.10,2013-01-04 14:37:00,
2013-01-04 09:52:00,29.4,23.0,30.33,WNW,301,1.0,12.0,78,0.00,,,0.00,weatherlink.com 1.10,2013-01-04 14:52:00,
2013-01-04 10:07:00,29.7,24.0,30.33,NW,318,0.0,3.0,78,0.00,,,0.00,weatherlink.com 1.10,2013-01-04 15:07:00,
2013-01-04 10:22:00,29.9,24.0,30.34,SSW,210,1.0,4.0,78,0.00,,,0.00,weatherlink.com 1.10,2013-01-04 15:22:00,
2013-01-04 10:37:00,30.0,24.0,30.33,NNW,333,1.0,5.0,78,0.00,,,0.00,weatherlink.com 1.10,2013-01-04 15:37:00,
2013-01-04 10:53:00,30.1,24.0,30.33,WSW,250,1.0,7.0,77,0.00,,,0.00,weatherlink.com 1.10,2013-01-04 15:53:00,
2013-01-04 11:08:00,30.4,24.0,30.33,SW,226,6.0,6.0,78,0.00,,,0.00,weatherlink.com 1.10,2013-01-04 16:08:00,
2013-01-04 11:23:00,30.3,24.0,30.33,NNW,338,1.0,7.0,78,0.00,,,0.00,weatherlink.com 1.10,2013-01-04 16:23:00,
2013-01-04 11:38:00,30.3,24.0,30.32,WSW,240,7.0,8.0,78,0.00,,,0.00,weatherlink.com 1.10,2013-01-04 16:38:00,
2013-01-04 11:53:00,30.3,24.0,30.31,NW,313,2.0,9.0,77,0.00,,,0.00,weatherlink.com 1.10,2013-01-04 16:53:00,
2013-01-04 12:08:00,30.5,24.0,30.30,SSE,163,4.0,7.0,78,0.00,,,0.00,weatherlink.com 1.10,2013-01-04 17:08:00,
2013-01-04 12:23:00,30.5,24.0,30.29,WSW,239,4.0,7.0,78,0.00,,,0.00,weatherlink.com 1.10,2013-01-04 17:23:00,
2013-01-04 12:38:00,30.6,24.0,30.29,NW,314,6.0,7.0,77,0.00,,,0.00,weatherlink.com 1.10,2013-01-04 17:38:00,
2013-01-04 12:53:00,30.7,24.0,30.29,SE,134,1.0,8.0,77,0.00,,,0.00,weatherlink.com 1.10,2013-01-04 17:53:00,
2013-01-04 13:08:00,30.9,25.0,30.28,NNE,18,1.0,10.0,77,0.00,,,0.00,weatherlink.com 1.10,2013-01-04 18:08:00,
2013-01-04 13:23:00,31.2,23.0,30.27,NNW,337,3.0,9.0,73,0.00,,,0.00,weatherlink.com 1.10,2013-01-04 18:23:00,
2013-01-04 13:38:00,31.5,24.0,30.27,SW,224,1.0,5.0,74,0.00,,,0.00,weatherlink.com 1.10,2013-01-04 18:38:00,
2013-01-04 13:53:00,31.6,24.0,30.27,NW,316,0.0,8.0,74,0.00,,,0.00,weatherlink.com 1.10,2013-01-04 18:53:00,
2013-01-04 14:08:00,31.4,24.0,30.27,NW,311,1.0,7.0,74,0.00,,,0.00,weatherlink.com 1.10,2013-01-04 19:08:00,
2013-01-04 14:23:00,31.4,24.0,30.27,WSW,242,2.0,9.0,74,0.00,,,0.00,weatherlink.com 1.10,2013-01-04 19:23:00,
2013-01-04 14:38:00,31.4,24.0,30.27,WNW,285,0.0,13.0,74,0.00,,,0.00,weatherlink.com 1.10,2013-01-04 19:38:00,
2013-01-04 14:53:00,31.4,24.0,30.27,East,89,1.0,7.0,75,0.00,,,0.00,weatherlink.com 1.10,2013-01-04 19:53:00,
2013-01-04 15:08:00,31.5,24.0,30.27,SW,215,2.0,3.0,75,0.00,,,0.00,weatherlink.com 1.10,2013-01-04 20:08:00,
2013-01-04 15:23:00,31.4,24.0,30.28,WNW,295,2.0,6.0,75,0.00,,,0.00,weatherlink.com 1.10,2013-01-04 20:23:00,
2013-01-04 15:38:00,31.3,24.0,30.27,WSW,239,1.0,8.0,74,0.00,,,0.00,weatherlink.com 1.10,2013-01-04 20:38:00,
2013-01-04 15:53:00,31.2,24.0,30.28,NW,308,3.0,6.0,74,0.00,,,0.00,weatherlink.com 1.10,2013-01-04 20:53:00,
2013-01-04 16:08:00,31.2,24.0,30.28,WSW,250,1.0,7.0,75,0.00,,,0.00,weatherlink.com 1.10,2013-01-04 21:08:00,
2013-01-04 16:23:00,31.1,24.0,30.28,South,177,0.0,5.0,75,0.00,,,0.00,weatherlink.com 1.10,2013-01-04 21:23:00,
2013-01-04 16:38:00,30.8,24.0,30.28,NNW,345,1.0,4.0,75,0.00,,,0.00,weatherlink.com 1.10,2013-01-04 21:38:00,
2013-01-04 16:53:00,30.7,24.0,30.28,WSW,245,0.0,4.0,76,0.00,,,0.00,weatherlink.com 1.10,2013-01-04 21:53:00,
2013-01-04 17:08:00,30.6,24.0,30.29,SW,235,1.0,5.0,76,0.00,,,0.00,weatherlink.com 1.10,2013-01-04 22:08:00,
2013-01-04 17:23:00,30.4,24.0,30.28,WNW,287,1.0,4.0,76,0.00,,,0.00,weatherlink.com 1.10,2013-01-04 22:23:00,
2013-01-04 17:38:00,30.3,24.0,30.29,West,278,1.0,5.0,76,0.00,,,0.00,weatherlink.com 1.10,2013-01-04 22:38:00,
2013-01-04 17:53:00,30.1,23.0,30.29,West,281,0.0,5.0,76,0.00,,,0.00,weatherlink.com 1.10,2013-01-04 22:53:00,
2013-01-04 18:08:00,29.9,23.0,30.30,North,351,1.0,5.0,76,0.00,,,0.00,weatherlink.com 1.10,2013-01-04 23:08:00,
2013-01-04 18:23:00,29.6,24.0,30.31,North,351,1.0,5.0,78,0.00,,,0.00,weatherlink.com 1.10,2013-01-04 23:23:00,
2013-01-04 18:38:00,29.4,23.0,30.31,NW,316,1.0,3.0,78,0.00,,,0.00,weatherlink.com 1.10,2013-01-04 23:38:00,
2013-01-04 18:53:00,29.0,23.0,30.32,NE,56,1.0,3.0,78,0.00,,,0.00,weatherlink.com 1.10,2013-01-04 23:53:00,
2013-01-04 19:08:00,29.1,23.0,30.32,NW,304,2.0,5.0,78,0.00,,,0.00,weatherlink.com 1.10,2013-01-05 00:08:00,
2013-01-04 19:23:00,29.1,23.0,30.32,SSE,166,1.0,5.0,79,0.00,,,0.00,weatherlink.com 1.10,2013-01-05 00:23:00,
2013-01-04 19:38:00,28.9,23.0,30.33,NW,314,3.0,7.0,79,0.00,,,0.00,weatherlink.com 1.10,2013-01-05 00:38:00,
2013-01-04 19:53:00,29.0,23.0,30.33,North,354,1.0,5.0,79,0.00,,,0.00,weatherlink.com 1.10,2013-01-05 00:53:00,
2013-01-04 20:08:00,29.0,23.0,30.33,SE,124,1.0,5.0,79,0.00,,,0.00,weatherlink.com 1.10,2013-01-05 01:08:00,
2013-01-04 20:23:00,28.9,23.0,30.34,North,349,2.0,5.0,79,0.00,,,0.00,weatherlink.com 1.10,2013-01-05 01:23:00,
2013-01-04 20:38:00,29.0,23.0,30.34,SSE,149,1.0,5.0,79,0.00,,,0.00,weatherlink.com 1.10,2013-01-05 01:38:00,
2013-01-04 20:53:00,28.9,23.0,30.34,NE,50,1.0,3.0,80,0.00,,,0.00,weatherlink.com 1.10,2013-01-05 01:53:00,
2013-01-04 21:08:00,29.0,24.0,30.34,NW,319,1.0,7.0,80,0.00,,,0.00,weatherlink.com 1.10,2013-01-05 02:08:00,
2013-01-04 21:23:00,29.0,23.0,30.34,NW,321,0.0,4.0,79,0.00,,,0.00,weatherlink.com 1.10,2013-01-05 02:23:00,
2013-01-04 21:38:00,29.1,24.0,30.35,NW,318,1.0,5.0,80,0.00,,,0.00,weatherlink.com 1.10,2013-01-05 02:38:00,
2013-01-04 21:53:00,29.0,24.0,30.35,WNW,295,2.0,4.0,80,0.00,,,0.00,weatherlink.com 1.10,2013-01-05 02:53:00,
2013-01-04 22:08:00,29.0,24.0,30.36,NW,316,1.0,4.0,80,0.00,,,0.00,weatherlink.com 1.10,2013-01-05 03:08:00,
2013-01-04 22:23:00,28.9,23.0,30.36,North,6,0.0,3.0,80,0.00,,,0.00,weatherlink.com 1.10,2013-01-05 03:23:00,
2013-01-04 22:38:00,28.9,23.0,30.35,West,270,1.0,3.0,80,0.00,,,0.00,weatherlink.com 1.10,2013-01-05 03:38:00,
2013-01-04 22:53:00,28.7,24.0,30.35,NNW,333,0.0,4.0,81,0.00,,,0.00,weatherlink.com 1.10,2013-01-05 03:53:00,
2013-01-04 23:08:00,28.7,23.0,30.35,WSW,248,0.0,4.0,80,0.00,,,0.00,weatherlink.com 1.10,2013-01-05 04:08:00,
2013-01-04 23:23:00,28.3,23.0,30.36,SW,218,0.0,3.0,81,0.00,,,0.00,weatherlink.com 1.10,2013-01-05 04:23:00,
2013-01-04 23:38:00,28.1,23.0,30.36,West,262,0.0,2.0,82,0.00,,,0.00,weatherlink.com 1.10,2013-01-05 04:38:00,
2013-01-04 23:53:00,27.8,23.0,30.35,NW,325,0.0,2.0,82,0.00,,,0.00,weatherlink.com 1.10,2013-01-05 04:53:00,